When you browse on this site, cookies collect data to enhance your experience and personalize the content and advertising you see.
Visit our Privacy Policy to learn more. By continuing to use the site, you agree to this use of cookies and data.
  • In Sweden
  • List of Countries
  • For 7 days
  • Water Temperature
  • Weather Map
  • Weather Widgets
  • user-avatar
    Login

    Hourly Weather Bangalore

    Today, 24 January, Friday

    Time Temperature Precipitation Wind Pressure Humidity
    00:00 +19°C° 0 mm 4 mps 685 mmHg 76%
    01:00 +19°C° 0 mm 3 mps 685 mmHg 80%
    02:00 +18°C° 0 mm 3 mps 684 mmHg 84%
    03:00 +18°C° 0 mm 3 mps 684 mmHg 84%
    04:00 +17°C° 0 mm 2 mps 684 mmHg 83%
    05:00 +17°C° 0 mm 2 mps 684 mmHg 89%
    06:00 +19°C° 0 mm 2 mps 685 mmHg 80%
    07:00 +20°C° 0 mm 3 mps 686 mmHg 71%
    08:00 +21°C° 0 mm 4 mps 686 mmHg 62%
    09:00 +23°C° 0 mm 4 mps 687 mmHg 49%
    10:00 +26°C° 0 mm 4 mps 687 mmHg 37%
    11:00 +29°C° 0 mm 4 mps 687 mmHg 26%
    12:00 +29°C° 0 mm 4 mps 686 mmHg 23%
    13:00 +30°C° 0 mm 4 mps 686 mmHg 21%
    14:00 +32°C° 0 mm 4 mps 685 mmHg 19%
    15:00 +30°C° 0 mm 4 mps 685 mmHg 21%
    16:00 +29°C° 0 mm 4 mps 685 mmHg 23%
    17:00 +28°C° 0 mm 4 mps 684 mmHg 25%
    18:00 +26°C° 0 mm 4 mps 685 mmHg 31%
    19:00 +23°C° 0 mm 4 mps 685 mmHg 37%
    20:00 +21°C° 0 mm 4 mps 685 mmHg 42%
    21:00 +21°C° 0 mm 4 mps 685 mmHg 46%
    22:00 +20°C° 0 mm 4 mps 685 mmHg 49%
    23:00 +19°C° 0 mm 4 mps 685 mmHg 53%

    Tomorrow, 25 January, Saturday

    Time Temperature Precipitation Wind Pressure Humidity
    00:00 +18°C° 0 mm 3 mps 685 mmHg 55%
    01:00 +18°C° 0 mm 3 mps 684 mmHg 58%
    02:00 +17°C° 0 mm 3 mps 684 mmHg 61%
    03:00 +17°C° 0 mm 2 mps 684 mmHg 59%
    04:00 +17°C° 0 mm 2 mps 684 mmHg 57%
    05:00 +16°C° 0 mm 2 mps 684 mmHg 55%
    06:00 +18°C° 0 mm 2 mps 684 mmHg 49%
    07:00 +19°C° 0 mm 2 mps 685 mmHg 44%
    08:00 +20°C° 0 mm 2 mps 686 mmHg 38%
    09:00 +24°C° 0 mm 3 mps 686 mmHg 30%
    10:00 +26°C° 0 mm 3 mps 687 mmHg 23%
    11:00 +28°C° 0 mm 4 mps 687 mmHg 15%
    12:00 +29°C° 0 mm 4 mps 686 mmHg 14%
    13:00 +30°C° 0 mm 4 mps 685 mmHg 14%
    14:00 +32°C° 0 mm 4 mps 685 mmHg 14%
    15:00 +29°C° 0 mm 4 mps 685 mmHg 17%
    16:00 +28°C° 0 mm 4 mps 684 mmHg 21%
    17:00 +27°C° 0 mm 4 mps 684 mmHg 24%
    18:00 +26°C° 0 mm 4 mps 684 mmHg 30%
    19:00 +23°C° 0 mm 4 mps 685 mmHg 35%
    20:00 +21°C° 0 mm 4 mps 685 mmHg 40%
    21:00 +20°C° 0 mm 3 mps 685 mmHg 43%
    22:00 +20°C° 0 mm 3 mps 685 mmHg 47%
    23:00 +19°C° 0 mm 3 mps 685 mmHg 50%

    Day after tomorrow, 26 January, Sunday

    Time Temperature Precipitation Wind Pressure Humidity
    00:00 +19°C° 0 mm 3 mps 684 mmHg 53%
    01:00 +18°C° 0 mm 3 mps 684 mmHg 57%
    02:00 +18°C° 0 mm 3 mps 683 mmHg 60%
    03:00 +17°C° 0 mm 2 mps 683 mmHg 61%
    04:00 +17°C° 0 mm 2 mps 683 mmHg 62%
    05:00 +17°C° 0 mm 2 mps 683 mmHg 63%
    06:00 +18°C° 0 mm 2 mps 684 mmHg 59%
    07:00 +19°C° 0 mm 2 mps 684 mmHg 55%
    08:00 +21°C° 0 mm 1 mps 685 mmHg 51%
    09:00 +24°C° 0 mm 2 mps 685 mmHg 42%
    10:00 +26°C° 0 mm 3 mps 686 mmHg 34%
    11:00 +29°C° 0 mm 3 mps 686 mmHg 26%
    12:00 +30°C° 0 mm 3 mps 685 mmHg 24%
    13:00 +31°C° 0 mm 3 mps 684 mmHg 22%
    14:00 +31°C° 0 mm 3 mps 684 mmHg 20%
    15:00 +31°C° 0 mm 3 mps 684 mmHg 22%
    16:00 +30°C° 0 mm 3 mps 683 mmHg 24%
    17:00 +30°C° 0 mm 3 mps 683 mmHg 25%
    18:00 +28°C° 0 mm 4 mps 683 mmHg 31%
    19:00 +26°C° 0 mm 4 mps 684 mmHg 36%
    20:00 +22°C° 0 mm 4 mps 684 mmHg 41%
    21:00 +22°C° 0 mm 4 mps 684 mmHg 43%
    22:00 +21°C° 0 mm 3 mps 684 mmHg 45%
    23:00 +20°C° 0 mm 3 mps 684 mmHg 47%

    27 January, Monday

    Time Temperature Precipitation Wind Pressure Humidity
    00:00 +20°C° 0 mm 3 mps 684 mmHg 49%
    01:00 +19°C° 0 mm 3 mps 683 mmHg 51%
    02:00 +19°C° 0 mm 2 mps 683 mmHg 53%
    03:00 +19°C° 0 mm 2 mps 682 mmHg 56%
    04:00 +18°C° 0 mm 2 mps 682 mmHg 60%
    05:00 +18°C° 0 mm 2 mps 682 mmHg 63%
    06:00 +19°C° 0 mm 2 mps 683 mmHg 60%
    07:00 +20°C° 0 mm 2 mps 684 mmHg 58%
    08:00 +21°C° 0 mm 2 mps 685 mmHg 55%
    09:00 +24°C° 0 mm 2 mps 685 mmHg 46%
    10:00 +27°C° 0 mm 3 mps 685 mmHg 37%
    11:00 +29°C° 0 mm 3 mps 685 mmHg 28%
    12:00 +30°C° 0 mm 3 mps 685 mmHg 26%
    13:00 +30°C° 0 mm 3 mps 684 mmHg 25%
    14:00 +31°C° 0 mm 3 mps 683 mmHg 23%
    15:00 +30°C° 0 mm 3 mps 683 mmHg 25%
    16:00 +30°C° 0 mm 3 mps 683 mmHg 27%
    17:00 +29°C° 0 mm 4 mps 682 mmHg 30%
    18:00 +27°C° 0 mm 4 mps 683 mmHg 33%
    19:00 +25°C° 0 mm 3 mps 683 mmHg 37%
    20:00 +24°C° 0 mm 3 mps 684 mmHg 41%
    21:00 +22°C° 0 mm 3 mps 684 mmHg 45%
    22:00 +21°C° 0 mm 3 mps 683 mmHg 49%
    23:00 +21°C° 0 mm 3 mps 683 mmHg 53%

    28 January, Tuesday

    Time Temperature Precipitation Wind Pressure Humidity
    00:00 +20°C° 0 mm 2 mps 683 mmHg 56%
    01:00 +20°C° 0 mm 2 mps 683 mmHg 58%
    02:00 +19°C° 0 mm 2 mps 682 mmHg 61%
    03:00 +20°C° 0 mm 1 mps 682 mmHg 62%
    04:00 +19°C° 0 mm 1 mps 682 mmHg 64%
    05:00 +17°C° 0 mm 0 mps 682 mmHg 65%
    06:00 +18°C° 0 mm 0 mps 683 mmHg 62%
    07:00 +21°C° 0 mm 1 mps 684 mmHg 60%
    08:00 +22°C° 0 mm 1 mps 684 mmHg 57%
    09:00 +24°C° 0 mm 1 mps 685 mmHg 50%
    10:00 +26°C° 0 mm 2 mps 685 mmHg 42%
    11:00 +28°C° 0 mm 3 mps 685 mmHg 34%
    12:00 +29°C° 0 mm 3 mps 685 mmHg 31%
    13:00 +30°C° 0 mm 3 mps 684 mmHg 28%
    14:00 +32°C° 0 mm 4 mps 683 mmHg 25%
    15:00 +30°C° 0 mm 4 mps 683 mmHg 28%
    16:00 +29°C° 0 mm 5 mps 683 mmHg 32%
    17:00 +28°C° 0 mm 5 mps 683 mmHg 35%
    18:00 +27°C° 0 mm 5 mps 683 mmHg 42%
    19:00 +25°C° 0 mm 4 mps 684 mmHg 48%
    20:00 +22°C° 0 mm 4 mps 684 mmHg 55%
    21:00 +22°C° 0 mm 4 mps 684 mmHg 57%
    22:00 +21°C° 0 mm 4 mps 684 mmHg 60%
    23:00 +20°C° 0 mm 3 mps 684 mmHg 63%

    29 January, Wednesday

    Time Temperature Precipitation Wind Pressure Humidity
    00:00 +20°C° 0 mm 3 mps 684 mmHg 65%
    01:00 +19°C° 0 mm 3 mps 683 mmHg 66%
    02:00 +19°C° 0 mm 3 mps 683 mmHg 68%
    03:00 +18°C° 0 mm 2 mps 683 mmHg 71%
    04:00 +18°C° 0 mm 2 mps 683 mmHg 73%
    05:00 +19°C° 0 mm 1 mps 683 mmHg 76%
    06:00 +20°C° 0 mm 1 mps 684 mmHg 73%
    07:00 +21°C° 0 mm 1 mps 685 mmHg 70%
    08:00 +22°C° 0 mm 1 mps 685 mmHg 66%
    09:00 +24°C° 0 mm 2 mps 686 mmHg 55%
    10:00 +26°C° 0 mm 2 mps 686 mmHg 45%
    11:00 +28°C° 0 mm 3 mps 686 mmHg 34%
    12:00 +29°C° 0 mm 3 mps 686 mmHg 30%
    13:00 +30°C° 0 mm 3 mps 685 mmHg 27%
    14:00 +33°C° 0 mm 3 mps 684 mmHg 23%
    15:00 +31°C° 0 mm 3 mps 684 mmHg 25%
    16:00 +30°C° 0 mm 4 mps 684 mmHg 28%
    17:00 +30°C° 0 mm 4 mps 684 mmHg 30%
    18:00 +28°C° 0 mm 4 mps 684 mmHg 37%
    19:00 +26°C° 0 mm 4 mps 684 mmHg 44%
    20:00 +23°C° 0 mm 4 mps 685 mmHg 50%
    21:00 +23°C° 0 mm 4 mps 685 mmHg 54%
    22:00 +22°C° 0 mm 3 mps 685 mmHg 57%
    23:00 +21°C° 0 mm 3 mps 685 mmHg 60%
    Show more